Total_Precipitation_Accumulation
0.13 0.22 0.25 0.25 0.23 0.19 0.15 0.13 0.23 0.27 0.40 0.50 0.54 0.67 0.83 1.01 0.99 0.93 0.76 0.67 0.75 0.76 0.80 0.83 0.85 0.93 0.88 0.90 0.95 1.10 1.29 1.40 1.52 1.54 1.52 1.52 1.58 1.61 1.63 1.72 1.70 1.77 1.84 1.86
0.17 0.20 0.25 0.28 0.27 0.20 0.14 0.12 0.17 0.26 0.41 0.54 0.61 0.70 0.78 0.78 0.72 0.64 0.58 0.48 0.47 0.64 0.74 0.71 0.71 0.75 0.70 0.75 0.89 1.04 1.14 1.25 1.46 1.60 1.63 1.62 1.66 1.75 1.79 1.78 1.79 1.82 1.78 1.83
0.27 0.26 0.26 0.35 0.34 0.25 0.16 0.15 0.21 0.33 0.51 0.68 0.57 0.60 0.68 0.67 0.67 0.61 0.60 0.46 0.42 0.51 0.68 0.68 0.69 0.68 0.76 0.89 1.01 1.12 1.27 1.40 1.58 1.69 1.78 1.79 1.76 1.87 1.83 1.84 1.90 1.86 1.79 1.79
0.34 0.45 0.53 0.38 0.31 0.30 0.29 0.27 0.28 0.40 0.43 0.58 0.58 0.64 0.77 0.76 0.76 0.60 0.54 0.47 0.47 0.48 0.51 0.57 0.63 0.69 0.83 1.11 1.35 1.41 1.55 1.73 1.82 1.91 1.86 1.84 1.86 1.89 1.97 2.05 2.09 2.06 2.01 1.92
0.50 0.64 0.55 0.47 0.33 0.37 0.42 0.55 0.56 0.64 0.62 0.57 0.58 0.70 0.79 0.68 0.62 0.63 0.53 0.49 0.52 0.57 0.59 0.67 0.73 0.76 0.95 1.18 1.48 1.65 1.70 1.80 1.94 2.02 2.05 2.07 2.10 2.07 2.14 2.26 2.22 2.13 2.08 2.09
0.63 0.77 0.76 0.63 0.48 0.48 0.60 1.05 0.87 0.80 0.82 0.72 0.68 0.83 0.92 0.85 0.77 0.72 0.65 0.61 0.62 0.65 0.77 0.94 1.01 1.02 1.15 1.27 1.42 1.61 1.68 1.80 1.97 2.20 2.25 2.28 2.42 2.50 2.44 2.39 2.24 2.26 2.25 2.22
0.78 0.84 0.91 0.76 0.69 0.72 1.14 1.42 1.10 0.94 0.91 0.90 1.02 1.05 0.99 0.87 0.87 0.80 0.70 0.72 0.70 0.73 0.88 1.11 1.24 1.28 1.38 1.51 1.61 1.62 1.70 1.85 2.05 2.23 2.32 2.39 2.55 2.62 2.57 2.52 2.48 2.43 2.35 2.41
0.94 1.12 1.29 0.89 0.85 1.27 1.54 1.28 1.28 1.27 1.20 1.08 1.06 1.03 0.99 0.89 0.86 0.81 0.77 0.82 0.85 0.90 1.04 1.25 1.42 1.39 1.45 1.54 1.58 1.63 1.64 1.75 1.89 2.06 2.09 2.18 2.44 2.53 2.60 2.61 2.55 2.45 2.40 2.28
1.25 1.36 1.25 1.04 1.11 1.29 1.42 1.58 1.49 1.38 1.39 1.20 1.17 1.08 0.98 0.90 0.85 0.82 0.79 0.85 0.92 0.98 1.14 1.38 1.54 1.57 1.64 1.54 1.62 1.67 1.69 1.82 1.97 2.05 2.10 2.20 2.30 2.34 2.42 2.48 2.42 2.32 2.34 2.29
1.41 1.45 1.37 1.23 1.08 1.02 1.15 1.27 1.26 1.25 1.25 1.22 1.19 1.12 1.02 0.91 0.84 0.83 0.83 0.79 0.85 0.96 1.03 1.13 1.33 1.50 1.61 1.67 1.73 1.75 1.76 1.82 1.91 2.03 2.04 2.08 2.21 2.30 2.39 2.48 2.55 2.45 2.34 2.24
1.69 1.59 1.46 1.46 1.33 1.21 1.28 1.36 1.28 1.21 1.17 1.18 1.16 1.10 0.96 0.93 0.91 0.89 0.87 0.83 0.85 0.93 0.96 1.01 1.10 1.23 1.32 1.45 1.58 1.64 1.70 1.76 1.78 1.83 1.92 2.01 2.04 2.11 2.10 2.20 2.24 2.22 2.16 2.13
2.03 1.77 1.62 1.58 1.44 1.31 1.37 1.35 1.42 1.51 1.45 1.24 1.13 1.21 1.12 1.00 0.91 0.89 0.90 0.90 0.91 0.93 0.91 0.94 1.00 1.16 1.27 1.38 1.53 1.65 1.72 1.75 1.68 1.64 1.71 1.76 1.81 1.78 1.79 1.75 1.78 1.76 1.77 1.77
1.66 1.48 1.45 1.44 1.40 1.33 1.32 1.25 1.25 1.37 1.39 1.27 1.23 1.22 1.26 1.16 1.07 1.00 0.92 0.85 0.88 0.94 0.93 0.95 0.99 1.10 1.19 1.29 1.41 1.54 1.63 1.69 1.69 1.65 1.69 1.69 1.71 1.70 1.73 1.69 1.61 1.55 1.53 1.53
1.46 1.41 1.42 1.37 1.30 1.30 1.32 1.24 1.13 1.14 1.21 1.23 1.27 1.32 1.43 1.35 1.23 1.14 1.08 0.99 0.91 0.90 0.90 0.93 1.01 1.03 1.12 1.20 1.27 1.34 1.43 1.51 1.61 1.71 1.75 1.78 1.80 1.84 1.90 1.95 1.87 1.68 1.54 1.47
1.56 1.44 1.35 1.22 1.22 1.29 1.27 1.20 1.13 1.10 1.21 1.36 1.33 1.30 1.35 1.28 1.23 1.17 1.09 1.02 0.98 0.97 0.99 1.00 1.04 1.06 1.12 1.22 1.29 1.32 1.36 1.39 1.40 1.46 1.57 1.66 1.66 1.69 1.76 1.84 1.87 1.76 1.60 1.50
1.67 1.54 1.35 1.21 1.26 1.39 1.43 1.38 1.28 1.17 1.11 1.25 1.34 1.27 1.23 1.16 1.07 1.11 1.14 1.12 1.16 1.16 1.17 1.16 1.19 1.14 1.19 1.26 1.33 1.37 1.34 1.37 1.37 1.35 1.36 1.40 1.44 1.50 1.58 1.68 1.73 1.66 1.55 1.43
1.72 1.68 1.52 1.35 1.28 1.30 1.35 1.36 1.30 1.23 1.13 1.14 1.21 1.24 1.23 1.17 1.08 1.06 1.10 1.13 1.18 1.19 1.20 1.26 1.30 1.29 1.36 1.40 1.42 1.42 1.35 1.33 1.33 1.32 1.34 1.36 1.40 1.46 1.49 1.54 1.58 1.51 1.38 1.25
1.58 1.52 1.42 1.32 1.23 1.19 1.20 1.19 1.19 1.18 1.15 1.14 1.17 1.17 1.19 1.24 1.25 1.20 1.13 1.14 1.16 1.13 1.10 1.12 1.21 1.27 1.38 1.50 1.54 1.51 1.39 1.29 1.22 1.22 1.30 1.36 1.39 1.45 1.48 1.46 1.41 1.36 1.27 1.12
1.43 1.39 1.33 1.25 1.22 1.19 1.18 1.15 1.15 1.15 1.12 1.07 1.15 1.26 1.27 1.26 1.34 1.31 1.24 1.26 1.33 1.35 1.22 1.13 1.20 1.17 1.25 1.46 1.61 1.61 1.48 1.36 1.26 1.23 1.24 1.27 1.28 1.33 1.37 1.34 1.26 1.18 1.11 1.06
1.45 1.45 1.46 1.42 1.33 1.30 1.24 1.15 1.15 1.15 1.15 1.14 1.16 1.23 1.31 1.29 1.35 1.42 1.41 1.35 1.35 1.42 1.42 1.34 1.22 1.13 1.12 1.33 1.63 1.57 1.49 1.38 1.25 1.15 1.16 1.19 1.22 1.28 1.29 1.25 1.17 1.10 1.06 1.03
1.56 1.60 1.56 1.51 1.43 1.31 1.21 1.13 1.17 1.21 1.19 1.22 1.23 1.25 1.32 1.30 1.27 1.38 1.50 1.36 1.25 1.35 1.44 1.41 1.23 1.12 1.10 1.28 1.56 1.55 1.47 1.39 1.27 1.15 1.12 1.13 1.15 1.22 1.25 1.22 1.16 1.07 1.04 1.04
1.80 1.81 1.67 1.50 1.43 1.31 1.20 1.15 1.14 1.15 1.19 1.26 1.25 1.28 1.44 1.45 1.40 1.37 1.32 1.29 1.25 1.36 1.38 1.32 1.24 1.15 1.09 1.15 1.25 1.34 1.28 1.20 1.11 1.03 0.99 1.01 1.07 1.14 1.18 1.18 1.15 1.11 1.12 1.13
1.75 1.69 1.60 1.44 1.37 1.22 1.07 1.06 1.06 1.08 1.14 1.25 1.36 1.45 1.66 1.66 1.57 1.61 1.40 1.12 1.11 1.26 1.24 1.17 1.19 1.13 1.06 1.00 1.08 1.16 1.13 1.10 1.03 0.93 0.85 0.88 0.95 1.02 1.08 1.05 1.06 1.08 1.05 1.00
1.53 1.45 1.38 1.26 1.28 1.23 1.16 1.13 1.11 1.14 1.18 1.20 1.29 1.44 1.65 1.78 1.58 1.33 1.24 1.20 1.16 1.15 1.09 1.11 1.13 1.11 1.07 0.97 1.01 1.09 1.14 1.15 1.11 1.05 0.95 0.95 0.96 1.00 1.04 1.00 0.98 0.97 0.95 0.97
1.49 1.32 1.21 1.25 1.37 1.43 1.37 1.31 1.28 1.33 1.33 1.30 1.28 1.34 1.46 1.68 1.68 1.33 1.11 1.03 1.08 1.06 1.00 1.09 1.14 1.15 1.00 0.90 0.94 1.06 1.15 1.19 1.21 1.17 1.12 1.15 1.12 1.11 1.10 1.07 1.09 1.07 1.05 1.02
1.47 1.36 1.29 1.30 1.36 1.45 1.49 1.51 1.57 1.61 1.63 1.66 1.61 1.51 1.54 1.61 1.55 1.35 1.13 0.98 0.99 1.04 0.99 1.06 1.12 1.14 1.01 0.95 0.96 1.03 1.10 1.16 1.22 1.24 1.22 1.18 1.16 1.18 1.20 1.18 1.16 1.13 1.06 1.00
1.50 1.38 1.33 1.32 1.35 1.44 1.56 1.70 1.81 1.86 1.91 2.04 2.02 1.75 1.66 1.71 1.68 1.54 1.32 1.18 1.19 1.21 1.19 1.14 1.06 1.02 1.06 1.11 1.08 1.01 1.04 1.13 1.14 1.17 1.24 1.20 1.16 1.14 1.15 1.11 1.06 1.01 0.94 0.87